User: anonymous   Login
Location: Allison Elementary School
(34.0784°N, 117.7317°W)
Time: 12:32:27
(UTC+00:00)
Language:

SMAP - Orbit

View from above orbital plane
View from above orbital plane
View from above satellite
View from above satellite

Ground track
Ground track

The orbit data is extracted from the following two-line orbital elements,

1 40376U 15003A   20029.14859015  .00000024  00000-0  13636-4 0  9994
2 40376  98.1231  37.7433 0002037  76.9546 283.1882 14.63368219266708
Epoch (UTC): 29 January 2020 03:33:58
Eccentricity: 0.0002037
inclination: 98.1231°
perigee height: 681 km
apogee height: 684 km
right ascension of ascending node: 37.7433°
argument of perigee: 76.9546°
revolutions per day: 14.63368219
mean anomaly at epoch: 283.1882°
orbit number at epoch: 26670

The dashed part of the orbit path shows where the satellite is in the earth's shadow,  

DLR